261  
SXUS52 KTAE 271818  
OSOTAE  
OSOTAE  
NORTH FLORIDA/SOUTH ALABAMA/SOUTHWEST GEORGIA WEATHER ROUNDUP  
NATIONAL WEATHER SERVICE TALLAHASSEE FLORIDA  
200 PM EDT THU APR 27 2017  
 
NOTE: "FAIR" INDICATES FEW OR NO CLOUDS BELOW 12,000 FEET WITH NO  
SIGNIFICANT WEATHER AND/OR OBSTRUCTIONS TO VISIBILITY.  
 
!FLZ017-115-028-034-025-271900   
..NORTH FLORIDA
 
 
 
CITY SKY/WX TMP DP RH WIND PRES REMARKS  
TALLAHASSEE PTSUNNY 87 66 49 S17G32 29.87F  
APALACHICOLA CLOUDY 82 76 81 S17 29.89F  
PERRY PTSUNNY 85 69 59 SW20G25 29.93F  
CROSS CITY SUNNY 88 64 45 S16 29.92S  
JACKSONVILLE MOSUNNY 90 61 37 SE13G28 29.88F HX 90  

 
 
!FLZ112-006-005-002-011-271900   
..FLORIDA PANHANDLE
 
 
 
CITY SKY/WX TMP DP RH WIND PRES REMARKS  
MARIANNA CLOUDY 84 71 65 S17G25 29.83F  
BONIFAY CLOUDY 79 72 79 S12G23 29.85S  
PANAMA CITY NW CLOUDY 80 72 76 S18G25 29.86F  
TYNDALL AFB PTSUNNY 80 73 81 S17 29.87F  
TYND DRONE APT FAIR 81 75 83 S21G36 29.87F  
DE FUNIAK SPR LGT RAIN 75 74 95 SW10G23 29.85F  
EGLIN AFB CLOUDY 78 73 84 SW17 29.84F FOG  
DESTIN LGT RAIN 79 79 100 VRB7 29.85S  
HURLBURT CLOUDY 80 70 73 S14 29.84S  
CRESTVIEW PTSUNNY 85 71 63 SW14G23 29.84F HX 90  
PENSACOLA CLOUDY 83 73 72 S16G29 29.82F  

 
 
!ALZ063-066-271900   
..SOUTH ALABAMA
 
 
 
CITY SKY/WX TMP DP RH WIND PRES REMARKS  
DOTHAN RAIN 76 73 91 SW12 29.87S FOG  
OZARK CAIRNS PTSUNNY 83 72 67 S23G32 29.81F  
FT RUCKER HELI PTSUNNY 83 71 67 SW17G28 29.80F  
RUCKER HELI 3 PTSUNNY 82 71 69 SW16G26 29.81F  
RUCKER HELI 2 PTSUNNY 82 71 70 SW14G26 29.81F  
FLORALA APT LGT RAIN 84 70 62 SW17G29 29.83S  
ANDALUSIA LGT RAIN 79 73 82 SW7 29.81R  
TROY CLOUDY 76 72 87 SW7 29.82S  
EUFALA CLOUDY 80 70 71 S7 29.81R  
MOBILE MOSUNNY 83 64 52 SW10 29.82F  

 
 
!GAZ120>161-271900   
..SOUTHWEST AND SOUTH CENTRAL GEORGIA
 
 
 
CITY SKY/WX TMP DP RH WIND PRES REMARKS  
THOMASVILLE NOT AVBL  
BAINBRIDGE MOSUNNY 86 64 48 SW21G29 29.85S  
MOODY AFB PTSUNNY 90 62 40 S23G32 29.86F HX 90  
VALDOSTA PTSUNNY 86 64 47 S14G24 29.88F  
MOULTRIE MOSUNNY 84 63 48 S15G25 29.88F  
BLAKELY LGT RAIN 79 70 73 SW8G21 29.84S  
ALBANY LGT RAIN 86 64 47 S21G30 29.85F  
TIFTON PTSUNNY 86 65 49 S16G29 29.87R  
FITZGERALD CLOUDY 88 68 52 S15G24 29.89S HX 91  
CORDELE FAIR 89 63 40 SW18G29 29.84F HX 90  
AMERICUS MOCLDY 81 61 50 SW14G23 29.83F  
HOMERVILLE FAIR 90 64 43 SW16G23 29.89F HX 91  

 
 
!GMZ750-755-770-775-271900   
..COASTAL AND BUOY OBS
 
 
 
STATION/POSITION TIME TEMP WIND PRES VSBY WAVE  
AIR SEA DIR/SP/G HT/PER  
(UTC) (F) (DEG/KT/KT) (MB) (MI) (FT/S)  
KEATON BEACH 1800 76 190/ 12/ 14 1013.6F  
CEDAR KEY 1800 78 190/ 12/ 15 1013.6F  
C TOWER 1800 74 190/ 14/ 16 1013.3F  
APALACHICOLA BUO 1750 74 74 170/ 12/ 16 1012.8R 3/ 6  
PANAMA CITY BUOY 1750 76 75 170/ 14/ 17 1011.3F 4/ 7  
MOBILE BUOY 1800 76 76 210/ 10/ 12 1010.5  
ORANGE BCH AL BU 1750 75 74 200/ 12/ 14 1009.9F 5/ 6  

 
 
 
CLICK HERE TO GO TO PREVIOUS BULLETINS.

The Nexlab FL Page
The Nexlab GA Page
The Nexlab AL Page Main Text Page